Regional Weather Roundup
Issued by NWS

Home | Current Version | Previous Version | Text Only | Print | Product List | Glossary Off
Versions: 1 2 3 4 5 6 7 8 9 10 11 12 13 14 15 16 17 18 19 20 21 22 23 24 25 26 27 28 29 30 31 32 33 34 35 36 37 38 39 40 41 42 43 44 45 46 47 48 49 50

000
ASUS43 KMKX 301111
RWRWI

WISCONSIN REGIONAL WEATHER ROUNDUP
NATIONAL WEATHER SERVICE MILWAUKEE/SULLIVAN WI
600 AM CDT THU OCT 30 2014

NOTE: "FAIR" INDICATES FEW OR NO CLOUDS BELOW 12,000 FEET WITH NO
SIGNIFICANT WEATHER AND/OR OBSTRUCTIONS TO VISIBILITY.

WIZ001-002-006>008-014>016-023>028-301200-
NORTHWEST WISCONSIN

CITY           SKY/WX    TMP DP  RH WIND       PRES   REMARKS
SUPERIOR ARPT  CLOUDY    34  32  94 SW3       30.06S
ASHLAND        CLOUDY    38  33  82 SW5       30.06S WCI  34
HAYWARD        CLOUDY    36  32  85 S3        30.05S
SIREN          MOCLDY    36  32  87 CALM      30.05S
CUMBERLAND     CLOUDY    34  32  93 CALM      30.05S FOG
RICE LAKE      CLOUDY    34  33  95 CALM      30.07S
CHETEK         CLOUDY    34  33  96 CALM      30.06S
LADYSMITH      CLOUDY    35  33  94 CALM      30.07S
EAU CLAIRE     CLOUDY    35  31  85 CALM      30.06S
MENOMONIE      CLOUDY    35  33  94 CALM      30.06S
NEW RICHMOND   CLOUDY    37  35  92 CALM      30.05S
OSCEOLA        CLOUDY    37  36  97 CALM      30.07F
$$

WIZ003>005-009-010-017-018-301200-
NORTH CENTRAL WISCONSIN

CITY           SKY/WX    TMP DP  RH WIND       PRES   REMARKS
MANITOWISH WTR CLOUDY    36  33  90 CALM      30.03R
ARBOR VITAE    CLOUDY    37  33  87 CALM      30.03S
WOODRUFF       CLOUDY    37  33  87 CALM      30.03S
RHINELANDER    CLOUDY    36  31  82 CALM      30.04F
EAGLE RIVER    CLOUDY    36  31  83 CALM      30.03S
LAND O LAKES   CLOUDY    36  32  87 CALM      30.03F
PHILLIPS       CLOUDY    36  32  87 W5        30.04R WCI  32
TOMAHAWK       CLOUDY    34  31  89 CALM      30.05S
MEDFORD        CLOUDY    32  32  98 CALM      30.05S
MERRILL        CLOUDY    31  31 100 CALM      30.05F
$$

WIZ029-030-035-036-043>047-301200-
CENTRAL WISCONSIN

CITY           SKY/WX    TMP DP  RH WIND       PRES   REMARKS
WAUSAU         CLOUDY    33  31  92 CALM      30.05F
MOSINEE        MOCLDY    30  30 100 CALM      30.06F
MARSHFIELD     CLOUDY    32  30  92 CALM      30.05F
STEVENS POINT  CLOUDY    30  29  96 CALM      30.07S
WAUPACA        CLOUDY    34  33  95 CALM      30.09R
WAUTOMA        CLOUDY    31  30  96 CALM      30.09S
WISC RAPIDS    CLOUDY    33  32  96 CALM      30.09R
CAMP DOUGLAS   CLOUDY    32  32 100 SE5       30.08S WCI  27
$$

WIZ011>013-019>022-031-037>040-048>050-301200-
NORTHEAST WISCONSIN

CITY           SKY/WX    TMP DP  RH WIND       PRES   REMARKS
ANTIGO         CLOUDY    32  32  99 CALM      30.05S
SHAWANO        CLOUDY    38  34  84 CALM      30.08S
OCONTO         CLOUDY    39  36  90 SW3       30.08S
STURGEON BAY   CLOUDY    41  34  75 CALM      30.08S
GREEN BAY      CLOUDY    37  34  89 CALM      30.09R
MANITOWOC      MOCLDY    38  35  89 W5        30.10R WCI  34
APPLETON       MOCLDY    36  34  93 SW6       30.08S WCI  31
CLINTONVILLE   CLOUDY    34  32  93 CALM      30.08S
OSHKOSH        MOCLDY    36  33  89 CALM      30.09R
$$

WIZ032>034-041-042-053>061-301200-
SOUTHWEST WISCONSIN

CITY           SKY/WX    TMP DP  RH WIND       PRES   REMARKS
LA CROSSE      MOCLDY    38  34  85 SE5       30.08S WCI  34
SPARTA         MOCLDY    30  30  99 CALM      30.09R
VIROQUA        MOCLDY    36  32  88 S5        30.07R WCI  32
BOSCOBEL       FOG       30  28  92 CALM      30.11S VSB 1/4
PRAIRIE DU CHI CLEAR     32  31  96 E3        30.09F
PLATTEVILLE    PTCLDY    33  31  93 SE5       30.09F WCI  28
$$

WIZ056-057-062-063-064-067-068-301200-
SOUTH CENTRAL WISCONSIN

CITY           SKY/WX    TMP DP  RH WIND       PRES   REMARKS
REEDSBURG      MOCLDY    31  30  96 CALM      30.09S
BARABOO/DELLS  MOCLDY    32  31  96 CALM      30.08S
LONE ROCK      PTCLDY    35  29  78 CALM      30.10F
MINERAL POINT  FAIR      34  32  93 S3        30.09S
MADISON        MOCLDY    33  30  88 CALM      30.10S
MIDDLETON      PTCLDY    34  32  94 CALM      30.10S
WATERTOWN      PTCLDY    30  30  99 CALM      30.10S
MONROE         PTCLDY    34  32  93 SW6       30.09F WCI  29
JANESVILLE     CLEAR     30  28  93 CALM      30.11S
$$

WIZ051-052-058>065-066-070>072-301200-
SOUTHEAST WISCONSIN

CITY           SKY/WX    TMP DP  RH WIND       PRES   REMARKS
MILWAUKEE      MOCLDY    36  31  82 CALM      30.11S
WAUKESHA       CLEAR     30  28  93 S2        30.12R
MILWAUKEE/TIMM PTCLDY    32  30  93 CALM      30.12R
RACINE         MOCLDY    35  31  85 W3        30.13S
BURLINGTON     PTCLDY    28  28  99 CALM      30.12R
KENOSHA        MOCLDY    31  29  92 SW3       30.12R
FOND DU LAC    MOCLDY    33  30  88 S3        30.10S
SHEBOYGAN      MOCLDY    32  30  92 W3        30.10S
WEST BEND      PTCLDY    32  30  93 CALM      30.10S
JUNEAU         MOCLDY    31  29  94 SE3       30.10F
$$

LSZ147-162-301200-
LAKE SUPERIOR

STATION/POSITION TIME  TEMP    WIND        PRES    WAVE
                       AIR SEA DIR/SP/G            HT/PER
                 (UTC) (F)     (DEG/KT/KT) (MB)    (FT/S)
W MID LAKE BUOY  1050   41 45  250/ 12/ 14 1017.1F   2/ 4
DEVILS ISLAND    1100   40     270/ 11/ 15 1017.9F
PORT WING        1040   39     210/  4/  7 1017.9S
SAXON HARBOR     1040   40        CALM     1017.6S
$$

LMZ867-665-643>646-301200-
LAKE MICHIGAN

STATION/POSITION TIME  TEMP    WIND        PRES    WAVE
                       AIR SEA DIR/SP/G            HT/PER
                 (UTC) (F)     (DEG/KT/KT) (MB)    (FT/S)
CHAMBERS ISLAND  1000   43      CALM  /  3 1018.6S
N MID LAKE BUOY  1050   44 51   CALM  /  2 1018.7S   0
NORTHPORT PIER   1000   42     220/  1/  2 1018.3S
KEWAUNEE LAKESHO 1000   40     290/  3/  3 1017.8R
SHEBOYGAN LAKESH 1100   37 50  260/  8/  9 1020.1R
PORT WASHINGTON  1000   38     270/  4/  6 1020.0S
ATWATER BUOY     1100   44     230/  6/  8 1020.6S
MILWAUKEE LAKESH 1000   43     290/  2/  3   N/A
S MID LAKE BUOY  1050   47 53  240/ 10/ 12 1020.2S   1/ 5
KENOSHA   LAKESH 1100   39     250/  7/  9 1020.0R
$$

TC  - TEMPERATURE IN CELSIUS
VSB - VISIBILITY IN STATUTE MILES
WCI - WIND CHILL INDEX
HX  - HEAT INDEX




USA.gov is the U.S. government's official web portal to all federal, state and local government web resources and services.